Regional Weather Roundup
Issued by NWS Columbia, SC

Home | Current Version | Previous Version | Text Only | Print | Product List | Glossary On
Versions: 1 2 3 4 5 6 7 8 9 10 11 12 13 14 15 16 17 18 19 20 21 22 23 24 25 26 27 28 29 30 31 32 33 34 35 36 37 38 39 40 41 42 43 44 45 46 47 48 49 50
000
ASUS42 KCAE 051310
RWRCAE
REGIONAL WEATHER ROUNDUP
NATIONAL WEATHER SERVICE COLUMBIA SC
900 AM EDT SUN JUL 05 2015

NOTE: "FAIR" INDICATES FEW OR NO CLOUDS BELOW 12,000 FEET WITH NO
SIGNIFICANT WEATHER AND/OR OBSTRUCTIONS TO VISIBILITY.

NOT ALL STATIONS ARE QUALITY CONTROLLED BY THE NATIONAL
WEATHER SERVICE. USE DATA WITH CAUTION...ESPECIALLY
DEWPOINT OBSERVATIONS.

SCZ001>056-GAZ040-063>065-077-051400-
...UPSTATE SOUTH CAROLINA...

CITY           SKY/WX    TMP DP  RH WIND       PRES   REMARKS
ANDERSON       CLOUDY    74  68  81 SW9       30.13R
SPARTANBURG    DRIZZLE   73  72  94 SW5       30.12S
CLEMSON        CLOUDY    74  68  81 W7        30.14R
GREENVILLE     CLOUDY    74  68  81 W10       30.14R
GREENWOOD      CLOUDY    74  69  85 SW8       30.15R
GREER          CLOUDY    74  69  85 SW8       30.12R
ROCK HILL      CLOUDY    73  70  90 SW8       30.14R
CHESTER        CLOUDY    75  72  88 S5        30.14S
LAURENS        CLOUDY    72  72 100 CALM      30.13S


...CENTRAL SOUTH CAROLINA...

CITY           SKY/WX    TMP DP  RH WIND       PRES   REMARKS
COLUMBIA APT   CLOUDY    76  70  82 SW8       30.13S
COLUMBIA OWENS CLOUDY    77  70  79 VRB5      30.14S
DARLINGTON     SUNNY     77  70  78 SW8       30.14S
FLORENCE       SUNNY     78  70  76 SW7       30.13S
MCENTIRE ANGB  CLOUDY    74  70  87 S5        30.14S
ORANGEBURG     MOSUNNY   74  69  85 SW8       30.15R
SUMTER SHAW    PTSUNNY   78  70  77 SW8       30.12R
NEWBERRY       CLOUDY    70  68  94 SW6       30.16S
BARNWELL       FAIR      75  72  88 SW6       30.16R
MANNING        FAIR      75  68  78 W7        30.15R
CAMDEN         FAIR      75  70  83 S7        30.14S
LANCASTER      CLOUDY    73  73 100 SW9       30.13S
WINNSBORO      CLOUDY    72  70  94 S5        30.14R


...EASTERN AND COASTAL SOUTH CAROLINA...

CITY           SKY/WX    TMP DP  RH WIND       PRES   REMARKS
MYRTLE BEACH   SUNNY     81  70  69 SW8       30.18R
N MYRTLE BCH   PTSUNNY   80  70  71 SW7       30.16R
CONWAY         FAIR      77  72  83 CALM      30.15F
MARION         FAIR      77  68  73 SW3       30.14S
HARTSVILLE     FAIR      77  70  78 S3        30.12F
FLORENCE       SUNNY     78  70  76 SW7       30.13S
DARLINGTON     SUNNY     77  70  78 SW8       30.14S
CHARLESTON APT PTSUNNY   77  70  79 W7        30.16R
MOUNT PLEASANT LGT RAIN  81  72  74 W9        30.16R
WALTERBORO     SUNNY     75  70  83 W5        30.16S
BEAUFORT       SUNNY     79  71  76 SW8       30.16R


...EASTERN GEORGIA...

CITY           SKY/WX    TMP DP  RH WIND       PRES   REMARKS
AUGUSTA BUSH F PTSUNNY   76  71  85 SW6       30.14R
AUGUSTA DANIEL PTSUNNY   76  70  82 SW5       30.15R
THOMSON        CLOUDY    77  74  90 SW3       30.19S
WASHINGTON     FAIR      77  73  88 W5        30.14S
CLAXTON        FAIR      77  72  83 SW5       30.16S
SYLVANIA       SUNNY     77  74  90 W5        30.16F
SAVANNAH       MOSUNNY   79  70  74 SW7       30.16S


...SOUTHERN NORTH CAROLINA...

CITY           SKY/WX    TMP DP  RH WIND       PRES   REMARKS
CHARLOTTE      CLOUDY    74  69  85 S7        30.13R
MONROE         CLOUDY    73  69  87 SW7       30.12S
WADESBORO      PTSUNNY   79  70  73 S5        30.11F
ROCKINGHAM     MOSUNNY   75  68  79 CALM      30.13S
ASHEVILLE      CLOUDY    69  65  86 SE5       30.16S

$$


USA.gov is the U.S. government's official web portal to all federal, state and local government web resources and services.